QPF
0.31 0.26 0.22 0.18 0.16 0.14 0.12 0.09 0.06 0.07 0.11 0.11 0.05 0.04 0.03 0.03 0.02 0.06 0.19 0.18 0.07 0.02 0.01 0.01 0.01 0.01 0.01 0.02 0.02 0.02 0.02 0.02 0.02 0.07 0.14 0.17 0.15 0.12
0.24 0.20 0.17 0.15 0.13 0.11 0.08 0.07 0.06 0.06 0.07 0.08 0.06 0.04 0.04 0.01 0.01 0.02 0.09 0.09 0.03 0.01 0.01 0.00 0.01 0.01 0.01 0.01 0.01 0.01 0.01 0.01 0.02 0.03 0.08 0.14 0.17 0.16
0.16 0.14 0.10 0.07 0.05 0.03 0.02 0.02 0.02 0.03 0.04 0.08 0.10 0.08 0.09 0.07 0.05 0.05 0.03 0.03 0.04 0.02 0.01 0.01 0.01 0.01 0.02 0.02 0.03 0.03 0.03 0.03 0.03 0.03 0.06 0.11 0.16 0.18
0.11 0.10 0.06 0.02 0.01 0.00 0.00 0.00 0.01 0.02 0.02 0.04 0.06 0.07 0.09 0.08 0.08 0.07 0.05 0.03 0.05 0.05 0.04 0.03 0.03 0.02 0.02 0.03 0.03 0.03 0.04 0.04 0.05 0.06 0.09 0.12 0.18 0.23
0.05 0.04 0.02 0.01 0.00 0.00 0.00 0.00 0.01 0.01 0.03 0.05 0.06 0.06 0.06 0.05 0.05 0.06 0.09 0.11 0.09 0.07 0.07 0.07 0.06 0.05 0.05 0.05 0.04 0.04 0.05 0.06 0.10 0.15 0.19 0.22 0.25 0.29
0.02 0.01 0.00 0.00 0.00 0.00 0.00 0.01 0.01 0.02 0.03 0.03 0.03 0.03 0.02 0.01 0.02 0.03 0.06 0.11 0.13 0.12 0.13 0.13 0.11 0.09 0.08 0.07 0.06 0.08 0.10 0.13 0.17 0.25 0.34 0.40 0.41 0.41
0.00 0.00 0.00 0.00 0.00 0.00 0.00 0.00 0.01 0.01 0.00 0.01 0.01 0.00 0.00 0.00 0.00 0.01 0.03 0.07 0.11 0.15 0.19 0.22 0.22 0.22 0.24 0.24 0.17 0.12 0.12 0.17 0.23 0.33 0.49 0.64 0.69 0.65
0.00 0.00 0.00 0.00 0.00 0.00 0.00 0.00 0.00 0.00 0.00 0.01 0.00 0.00 0.00 0.00 0.01 0.02 0.03 0.03 0.04 0.11 0.21 0.31 0.32 0.37 0.45 0.49 0.39 0.19 0.11 0.16 0.25 0.33 0.52 0.75 0.95 0.97
0.00 0.00 0.00 0.00 0.00 0.00 0.00 0.00 0.00 0.00 0.00 0.00 0.00 0.00 0.00 0.00 0.01 0.03 0.05 0.06 0.05 0.05 0.16 0.27 0.33 0.43 0.51 0.52 0.43 0.29 0.18 0.15 0.22 0.32 0.39 0.56 0.75 0.89
0.00 0.00 0.00 0.00 0.00 0.00 0.00 0.00 0.00 0.00 0.00 0.00 0.00 0.00 0.00 0.00 0.00 0.03 0.06 0.11 0.12 0.07 0.07 0.14 0.23 0.34 0.46 0.48 0.42 0.35 0.24 0.20 0.21 0.26 0.27 0.29 0.34 0.39
0.00 0.00 0.00 0.00 0.00 0.00 0.00 0.00 0.00 0.00 0.00 0.00 0.00 0.00 0.00 0.00 0.00 0.01 0.02 0.06 0.11 0.10 0.06 0.08 0.13 0.19 0.29 0.38 0.38 0.37 0.32 0.22 0.18 0.19 0.18 0.17 0.15 0.12
0.00 0.00 0.00 0.00 0.00 0.00 0.00 0.00 0.00 0.00 0.00 0.00 0.00 0.00 0.00 0.00 0.00 0.01 0.01 0.02 0.07 0.09 0.06 0.07 0.10 0.12 0.16 0.22 0.27 0.34 0.41 0.35 0.22 0.15 0.13 0.12 0.10 0.06
0.00 0.00 0.00 0.00 0.00 0.00 0.00 0.00 0.00 0.00 0.00 0.00 0.00 0.00 0.00 0.00 0.00 0.00 0.01 0.02 0.03 0.04 0.05 0.06 0.08 0.10 0.11 0.13 0.15 0.21 0.32 0.41 0.37 0.25 0.16 0.11 0.08 0.05
0.00 0.00 0.00 0.00 0.00 0.00 0.00 0.00 0.00 0.00 0.00 0.00 0.00 0.00 0.00 0.00 0.00 0.00 0.01 0.02 0.05 0.05 0.06 0.05 0.07 0.09 0.10 0.12 0.12 0.12 0.17 0.26 0.37 0.44 0.41 0.31 0.19 0.11
0.00 0.00 0.00 0.00 0.00 0.00 0.00 0.00 0.00 0.00 0.00 0.00 0.00 0.00 0.00 0.00 0.00 0.00 0.00 0.01 0.02 0.01 0.01 0.02 0.04 0.06 0.09 0.10 0.11 0.11 0.12 0.17 0.27 0.40 0.47 0.46 0.42 0.34
0.00 0.00 0.00 0.00 0.00 0.00 0.00 0.00 0.00 0.00 0.00 0.00 0.00 0.00 0.00 0.00 0.00 0.00 0.00 0.00 0.00 0.00 0.00 0.00 0.02 0.04 0.06 0.09 0.11 0.12 0.12 0.15 0.21 0.32 0.44 0.46 0.44 0.45
0.00 0.00 0.00 0.00 0.00 0.00 0.00 0.00 0.00 0.00 0.00 0.00 0.00 0.00 0.00 0.00 0.00 0.00 0.00 0.00 0.00 0.00 0.00 0.00 0.00 0.02 0.03 0.03 0.06 0.08 0.10 0.10 0.13 0.21 0.32 0.37 0.38 0.42
0.00 0.00 0.00 0.00 0.00 0.00 0.00 0.00 0.00 0.00 0.00 0.00 0.00 0.00 0.00 0.00 0.00 0.00 0.00 0.00 0.00 0.00 0.00 0.00 0.00 0.00 0.01 0.01 0.01 0.02 0.03 0.05 0.08 0.11 0.16 0.22 0.25 0.27
0.00 0.00 0.00 0.00 0.00 0.00 0.00 0.00 0.00 0.00 0.00 0.00 0.00 0.00 0.00 0.00 0.00 0.00 0.00 0.00 0.00 0.00 0.00 0.00 0.00 0.00 0.00 0.01 0.01 0.00 0.00 0.01 0.02 0.05 0.09 0.11 0.15 0.20
0.00 0.00 0.00 0.00 0.00 0.00 0.00 0.00 0.00 0.00 0.00 0.00 0.00 0.00 0.00 0.00 0.00 0.00 0.00 0.00 0.00 0.00 0.00 0.00 0.00 0.00 0.00 0.00 0.00 0.01 0.00 0.00 0.00 0.01 0.02 0.04 0.08 0.08
0.00 0.00 0.00 0.00 0.00 0.00 0.00 0.00 0.00 0.00 0.00 0.00 0.00 0.00 0.00 0.00 0.00 0.00 0.00 0.00 0.00 0.00 0.00 0.00 0.00 0.00 0.00 0.00 0.00 0.02 0.02 0.00 0.00 0.00 0.00 0.01 0.04 0.07
0.00 0.00 0.00 0.00 0.00 0.00 0.00 0.00 0.00 0.00 0.00 0.00 0.00 0.00 0.00 0.00 0.00 0.00 0.00 0.00 0.00 0.00 0.00 0.00 0.00 0.00 0.00 0.00 0.00 0.01 0.02 0.02 0.01 0.01 0.01 0.00 0.01 0.02
0.00 0.00 0.00 0.00 0.00 0.00 0.00 0.00 0.00 0.00 0.00 0.00 0.00 0.00 0.00 0.00 0.00 0.00 0.00 0.00 0.00 0.00 0.00 0.00 0.00 0.00 0.00 0.00 0.00 0.00 0.01 0.02 0.03 0.04 0.05 0.02 0.00 0.01
MSLP
1008.22 1008.59 1008.88 1009.09 1009.19 1009.18 1009.08 1008.91 1008.70 1008.47 1008.26 1008.08 1007.91 1007.76 1007.62 1007.47 1007.33 1007.19 1007.07 1007.01 1007.02 1007.11 1007.28 1007.52 1007.79 1008.07 1008.32 1008.52 1008.63 1008.68 1008.68 1008.67 1008.69 1008.79 1009.01 1009.36 1009.85 1010.47
1007.90 1008.25 1008.54 1008.75 1008.86 1008.87 1008.81 1008.69 1008.56 1008.42 1008.29 1008.17 1008.06 1007.95 1007.81 1007.65 1007.47 1007.28 1007.10 1006.97 1006.91 1006.94 1007.06 1007.26 1007.50 1007.76 1007.99 1008.16 1008.25 1008.26 1008.21 1008.14 1008.08 1008.10 1008.22 1008.50 1008.92 1009.50
1007.71 1008.05 1008.32 1008.51 1008.61 1008.64 1008.60 1008.53 1008.46 1008.39 1008.33 1008.28 1008.23 1008.16 1008.05 1007.89 1007.69 1007.46 1007.24 1007.05 1006.92 1006.89 1006.94 1007.08 1007.27 1007.48 1007.67 1007.80 1007.84 1007.81 1007.70 1007.56 1007.43 1007.37 1007.42 1007.62 1007.99 1008.53
1007.72 1008.03 1008.28 1008.45 1008.54 1008.56 1008.54 1008.51 1008.48 1008.46 1008.47 1008.48 1008.48 1008.45 1008.36 1008.22 1008.01 1007.76 1007.49 1007.25 1007.07 1006.96 1006.95 1007.01 1007.13 1007.27 1007.39 1007.46 1007.44 1007.34 1007.17 1006.97 1006.78 1006.65 1006.64 1006.78 1007.11 1007.63
1007.97 1008.25 1008.47 1008.61 1008.69 1008.71 1008.69 1008.68 1008.67 1008.69 1008.73 1008.78 1008.82 1008.82 1008.76 1008.63 1008.42 1008.16 1007.87 1007.59 1007.35 1007.18 1007.09 1007.07 1007.10 1007.15 1007.19 1007.17 1007.08 1006.91 1006.68 1006.42 1006.18 1006.00 1005.95 1006.07 1006.39 1006.90
1008.43 1008.69 1008.88 1009.01 1009.06 1009.07 1009.05 1009.03 1009.03 1009.06 1009.11 1009.18 1009.24 1009.25 1009.20 1009.08 1008.88 1008.62 1008.32 1008.01 1007.73 1007.51 1007.35 1007.24 1007.18 1007.14 1007.08 1006.97 1006.80 1006.56 1006.27 1005.97 1005.69 1005.50 1005.44 1005.56 1005.88 1006.41
1009.06 1009.30 1009.47 1009.57 1009.61 1009.59 1009.56 1009.52 1009.51 1009.52 1009.56 1009.61 1009.66 1009.67 1009.63 1009.51 1009.32 1009.07 1008.77 1008.46 1008.16 1007.90 1007.68 1007.51 1007.37 1007.24 1007.09 1006.89 1006.64 1006.34 1006.01 1005.67 1005.39 1005.19 1005.15 1005.29 1005.64 1006.19
1009.76 1009.98 1010.13 1010.22 1010.24 1010.20 1010.14 1010.07 1010.02 1010.00 1010.00 1010.02 1010.03 1010.02 1009.96 1009.85 1009.67 1009.43 1009.15 1008.85 1008.56 1008.28 1008.04 1007.82 1007.62 1007.42 1007.20 1006.94 1006.63 1006.28 1005.92 1005.58 1005.30 1005.12 1005.11 1005.28 1005.66 1006.25
1010.43 1010.64 1010.79 1010.86 1010.86 1010.80 1010.71 1010.60 1010.50 1010.42 1010.37 1010.33 1010.30 1010.25 1010.17 1010.05 1009.88 1009.66 1009.42 1009.15 1008.88 1008.62 1008.37 1008.14 1007.91 1007.67 1007.41 1007.10 1006.76 1006.39 1006.02 1005.68 1005.42 1005.28 1005.30 1005.51 1005.91 1006.52
1011.01 1011.21 1011.35 1011.41 1011.40 1011.32 1011.20 1011.05 1010.91 1010.77 1010.65 1010.55 1010.46 1010.36 1010.25 1010.12 1009.95 1009.76 1009.55 1009.33 1009.10 1008.87 1008.65 1008.44 1008.21 1007.96 1007.68 1007.37 1007.02 1006.65 1006.29 1005.97 1005.74 1005.63 1005.67 1005.91 1006.32 1006.92
1011.44 1011.65 1011.78 1011.84 1011.82 1011.73 1011.58 1011.41 1011.22 1011.03 1010.86 1010.70 1010.55 1010.41 1010.27 1010.12 1009.96 1009.78 1009.61 1009.42 1009.24 1009.07 1008.89 1008.70 1008.50 1008.27 1008.00 1007.70 1007.36 1007.01 1006.68 1006.39 1006.18 1006.09 1006.16 1006.39 1006.80 1007.36
1011.74 1011.94 1012.08 1012.13 1012.11 1012.02 1011.87 1011.69 1011.48 1011.26 1011.05 1010.84 1010.65 1010.47 1010.30 1010.13 1009.97 1009.81 1009.66 1009.51 1009.37 1009.23 1009.10 1008.95 1008.78 1008.58 1008.34 1008.07 1007.76 1007.44 1007.13 1006.87 1006.68 1006.61 1006.67 1006.89 1007.26 1007.76
1011.93 1012.13 1012.26 1012.32 1012.31 1012.23 1012.10 1011.92 1011.71 1011.49 1011.27 1011.05 1010.84 1010.64 1010.44 1010.26 1010.09 1009.93 1009.79 1009.66 1009.54 1009.43 1009.32 1009.20 1009.06 1008.89 1008.68 1008.44 1008.16 1007.88 1007.60 1007.36 1007.19 1007.11 1007.16 1007.34 1007.65 1008.08
1012.04 1012.23 1012.36 1012.43 1012.43 1012.38 1012.28 1012.13 1011.96 1011.77 1011.57 1011.36 1011.16 1010.95 1010.75 1010.56 1010.38 1010.21 1010.06 1009.92 1009.80 1009.69 1009.59 1009.48 1009.35 1009.20 1009.02 1008.80 1008.56 1008.30 1008.04 1007.82 1007.66 1007.58 1007.59 1007.73 1007.97 1008.32
1012.10 1012.27 1012.39 1012.46 1012.49 1012.47 1012.42 1012.33 1012.21 1012.08 1011.93 1011.77 1011.60 1011.42 1011.23 1011.04 1010.85 1010.66 1010.48 1010.32 1010.18 1010.04 1009.92 1009.80 1009.67 1009.52 1009.35 1009.15 1008.92 1008.69 1008.45 1008.25 1008.08 1007.99 1007.97 1008.05 1008.23 1008.49
1012.10 1012.24 1012.35 1012.43 1012.48 1012.50 1012.50 1012.48 1012.45 1012.40 1012.33 1012.24 1012.12 1011.98 1011.82 1011.64 1011.45 1011.24 1011.04 1010.84 1010.66 1010.48 1010.32 1010.17 1010.01 1009.85 1009.67 1009.48 1009.27 1009.05 1008.83 1008.63 1008.47 1008.36 1008.31 1008.35 1008.46 1008.65
1012.03 1012.14 1012.24 1012.31 1012.38 1012.44 1012.50 1012.56 1012.62 1012.66 1012.68 1012.67 1012.63 1012.56 1012.44 1012.29 1012.10 1011.89 1011.66 1011.43 1011.20 1010.98 1010.77 1010.58 1010.39 1010.20 1010.01 1009.81 1009.60 1009.39 1009.19 1009.00 1008.84 1008.72 1008.65 1008.65 1008.71 1008.84
1011.88 1011.95 1012.02 1012.09 1012.18 1012.28 1012.40 1012.53 1012.66 1012.80 1012.92 1013.00 1013.05 1013.04 1012.98 1012.87 1012.70 1012.49 1012.26 1012.00 1011.74 1011.48 1011.24 1011.00 1010.78 1010.57 1010.36 1010.16 1009.95 1009.75 1009.55 1009.37 1009.21 1009.09 1009.00 1008.97 1009.00 1009.08
1011.62 1011.66 1011.71 1011.78 1011.87 1012.01 1012.17 1012.37 1012.58 1012.80 1013.00 1013.17 1013.30 1013.37 1013.37 1013.30 1013.17 1012.99 1012.76 1012.51 1012.24 1011.96 1011.69 1011.43 1011.19 1010.96 1010.74 1010.53 1010.32 1010.13 1009.94 1009.76 1009.61 1009.48 1009.39 1009.34 1009.34 1009.38
1011.25 1011.28 1011.31 1011.38 1011.49 1011.65 1011.86 1012.10 1012.37 1012.65 1012.92 1013.17 1013.37 1013.50 1013.57 1013.56 1013.48 1013.34 1013.14 1012.91 1012.65 1012.38 1012.12 1011.86 1011.61 1011.37 1011.14 1010.93 1010.73 1010.53 1010.35 1010.18 1010.02 1009.89 1009.79 1009.73 1009.70 1009.71
1010.80 1010.82 1010.86 1010.94 1011.07 1011.25 1011.49 1011.77 1012.08 1012.41 1012.73 1013.03 1013.28 1013.47 1013.59 1013.64 1013.62 1013.53 1013.39 1013.20 1012.98 1012.75 1012.50 1012.26 1012.02 1011.79 1011.57 1011.35 1011.15 1010.95 1010.77 1010.60 1010.45 1010.31 1010.20 1010.12 1010.07 1010.05
1010.28 1010.32 1010.38 1010.48 1010.64 1010.85 1011.11 1011.42 1011.76 1012.12 1012.47 1012.80 1013.09 1013.32 1013.50 1013.60 1013.64 1013.61 1013.53 1013.40 1013.24 1013.05 1012.84 1012.63 1012.42 1012.20 1011.99 1011.78 1011.57 1011.37 1011.19 1011.01 1010.85 1010.70 1010.58 1010.49 1010.41 1010.37
1009.72 1009.79 1009.89 1010.03 1010.22 1010.46 1010.76 1011.09 1011.45 1011.83 1012.19 1012.54 1012.86 1013.12 1013.33 1013.48 1013.57 1013.61 1013.59 1013.53 1013.43 1013.30 1013.14 1012.97 1012.78 1012.59 1012.38 1012.17 1011.97 1011.76 1011.56 1011.38 1011.20 1011.05 1010.91 1010.80 1010.71 1010.64
Thickness
5688 5687 5688 5690 5692 5695 5698 5699 5696 5694 5698 5705 5709 5715 5717 5718 5718 5718 5719 5719 5718 5717 5714 5711 5710 5709 5708 5706 5706 5705 5705 5704 5705 5706 5706 5705 5703 5700
5682 5682 5682 5683 5685 5688 5692 5694 5695 5692 5690 5694 5698 5702 5706 5708 5709 5710 5711 5712 5711 5709 5705 5702 5700 5700 5699 5699 5698 5698 5699 5700 5700 5701 5701 5701 5700 5697
5678 5676 5675 5677 5678 5682 5685 5688 5689 5689 5684 5686 5691 5694 5695 5697 5700 5702 5704 5705 5705 5701 5697 5694 5692 5691 5691 5691 5691 5692 5693 5695 5697 5699 5699 5699 5697 5695
5670 5670 5670 5671 5672 5674 5678 5680 5682 5683 5681 5677 5680 5683 5685 5688 5690 5691 5693 5696 5695 5692 5688 5685 5684 5684 5683 5683 5683 5685 5687 5689 5693 5696 5697 5697 5696 5693
5663 5663 5662 5662 5662 5666 5669 5671 5673 5675 5676 5673 5671 5673 5675 5677 5678 5679 5681 5681 5682 5681 5678 5676 5675 5675 5675 5675 5676 5678 5680 5683 5688 5692 5694 5694 5693 5690
5654 5653 5653 5653 5655 5658 5659 5660 5663 5665 5665 5665 5662 5661 5661 5663 5665 5665 5665 5665 5664 5665 5665 5665 5666 5667 5667 5668 5668 5670 5673 5677 5682 5686 5689 5690 5689 5687
5644 5644 5644 5645 5646 5648 5649 5649 5651 5651 5652 5652 5648 5647 5646 5647 5648 5651 5650 5651 5650 5650 5651 5652 5654 5657 5658 5659 5660 5661 5664 5668 5674 5679 5682 5684 5684 5682
5636 5637 5637 5636 5637 5638 5639 5640 5641 5640 5638 5638 5635 5633 5632 5633 5635 5637 5638 5637 5636 5637 5638 5638 5641 5643 5646 5648 5650 5652 5654 5658 5664 5669 5673 5675 5676 5675
5627 5628 5630 5626 5627 5629 5631 5631 5632 5631 5630 5627 5623 5622 5621 5622 5622 5624 5625 5624 5623 5625 5627 5626 5629 5630 5633 5634 5638 5643 5645 5649 5653 5657 5661 5664 5664 5663
5620 5619 5616 5615 5616 5619 5623 5623 5623 5622 5621 5619 5617 5616 5615 5613 5612 5613 5614 5615 5615 5615 5617 5615 5617 5618 5620 5623 5626 5631 5635 5638 5640 5643 5647 5649 5650 5648
5611 5610 5609 5607 5606 5609 5611 5610 5611 5611 5613 5612 5611 5611 5609 5607 5604 5603 5602 5602 5600 5601 5604 5604 5605 5608 5609 5612 5615 5619 5623 5626 5629 5631 5633 5635 5635 5634
5602 5600 5598 5598 5598 5599 5601 5601 5600 5600 5602 5605 5606 5605 5602 5599 5596 5592 5589 5587 5586 5586 5589 5592 5594 5597 5598 5601 5604 5608 5612 5614 5618 5620 5621 5622 5623 5623
5602 5596 5592 5592 5593 5594 5595 5594 5592 5594 5596 5598 5597 5594 5591 5587 5584 5582 5579 5577 5573 5572 5576 5579 5581 5584 5587 5590 5595 5597 5601 5603 5607 5610 5611 5611 5612 5614
5596 5591 5588 5589 5590 5590 5590 5589 5590 5591 5591 5589 5584 5580 5576 5572 5571 5570 5570 5569 5568 5566 5566 5568 5569 5571 5575 5578 5582 5588 5591 5593 5596 5600 5602 5603 5604 5604
5588 5586 5586 5585 5585 5584 5585 5584 5582 5581 5578 5574 5570 5566 5563 5562 5561 5559 5559 5559 5560 5560 5558 5558 5558 5561 5564 5566 5569 5574 5580 5584 5587 5590 5593 5595 5597 5598
5585 5583 5582 5580 5579 5578 5579 5580 5578 5573 5568 5563 5559 5556 5554 5552 5550 5548 5545 5545 5546 5546 5549 5548 5549 5550 5551 5554 5557 5560 5566 5570 5575 5581 5584 5586 5588 5590
5582 5580 5578 5578 5578 5578 5578 5577 5572 5566 5561 5556 5551 5546 5543 5541 5539 5538 5535 5534 5533 5533 5534 5536 5537 5539 5540 5542 5544 5548 5552 5557 5563 5568 5572 5576 5578 5581
5578 5577 5578 5580 5579 5578 5576 5572 5566 5559 5554 5550 5544 5539 5535 5533 5530 5529 5527 5524 5523 5524 5524 5524 5524 5525 5528 5530 5531 5535 5539 5543 5550 5555 5559 5563 5566 5569
5574 5575 5579 5580 5578 5576 5572 5567 5561 5555 5550 5545 5538 5533 5529 5526 5523 5521 5518 5515 5515 5515 5516 5515 5513 5512 5512 5514 5519 5521 5525 5529 5534 5540 5544 5548 5552 5556
5573 5575 5578 5577 5575 5571 5568 5563 5558 5551 5545 5540 5534 5528 5524 5520 5516 5513 5512 5508 5506 5507 5507 5507 5505 5504 5503 5504 5508 5509 5513 5516 5519 5523 5528 5534 5538 5542
5574 5576 5577 5575 5572 5569 5564 5559 5554 5548 5541 5536 5531 5525 5520 5515 5511 5507 5505 5502 5500 5499 5496 5497 5497 5498 5499 5500 5499 5500 5502 5504 5506 5508 5512 5517 5522 5526
5577 5577 5576 5574 5570 5567 5562 5558 5554 5548 5541 5535 5529 5522 5516 5510 5505 5501 5498 5495 5493 5490 5487 5488 5489 5489 5489 5489 5489 5490 5492 5494 5495 5496 5498 5500 5504 5509
5576 5576 5573 5570 5567 5564 5561 5557 5552 5547 5541 5535 5527 5519 5512 5506 5500 5497 5492 5489 5485 5482 5479 5477 5477 5477 5478 5479 5478 5479 5481 5482 5484 5485 5487 5489 5492 5495